When you browse on this site, cookies collect data to enhance your experience and personalize the content and advertising you see.
Visit our Privacy Policy to learn more. By continuing to use the site, you agree to this use of cookies and data.
  • In Denmark
  • List of Countries
  • For 7 days
  • Water Temperature
  • Satellite Maps
  • Weather Map
  • Weather Widgets
  • user-avatar
    Login

    Hourly Weather Yulara

    Today, 26 June, Wednesday

    Time Temperature Precipitation Wind Pressure Humidity
    00:00 +10°C° 0 mm 4 mps 723 mmHg 32%
    01:00 +8°C° 0 mm 4 mps 723 mmHg 34%
    02:00 +8°C° 0 mm 3 mps 723 mmHg 36%
    03:00 +8°C° 0 mm 3 mps 723 mmHg 38%
    04:00 +7°C° 0 mm 3 mps 723 mmHg 38%
    05:00 +7°C° 0 mm 3 mps 723 mmHg 39%
    06:00 +7°C° 0 mm 3 mps 723 mmHg 40%
    07:00 +8°C° 0 mm 3 mps 724 mmHg 36%
    08:00 +10°C° 0 mm 4 mps 724 mmHg 32%
    09:00 +12°C° 0 mm 4 mps 724 mmHg 28%
    10:00 +14°C° 0 mm 4 mps 724 mmHg 25%
    11:00 +17°C° 0 mm 4 mps 723 mmHg 22%
    12:00 +19°C° 0 mm 5 mps 723 mmHg 20%
    13:00 +20°C° 0 mm 4 mps 722 mmHg 19%
    14:00 +21°C° 0 mm 4 mps 722 mmHg 19%
    15:00 +21°C° 0 mm 3 mps 721 mmHg 18%
    16:00 +19°C° 0 mm 3 mps 721 mmHg 21%
    17:00 +17°C° 0 mm 3 mps 721 mmHg 25%
    18:00 +14°C° 0 mm 3 mps 721 mmHg 29%
    19:00 +13°C° 0 mm 3 mps 721 mmHg 31%
    20:00 +12°C° 0 mm 4 mps 721 mmHg 34%
    21:00 +12°C° 0 mm 4 mps 722 mmHg 36%
    22:00 +11°C° 0 mm 4 mps 721 mmHg 37%
    23:00 +10°C° 0 mm 4 mps 721 mmHg 39%

    Tomorrow, 27 June, Thursday

    Time Temperature Precipitation Wind Pressure Humidity
    00:00 +8°C° 0 mm 4 mps 721 mmHg 40%
    01:00 +8°C° 0 mm 3 mps 721 mmHg 41%
    02:00 +8°C° 0 mm 3 mps 721 mmHg 42%
    03:00 +7°C° 0 mm 3 mps 721 mmHg 44%
    04:00 +5°C° 0 mm 3 mps 721 mmHg 44%
    05:00 +5°C° 0 mm 3 mps 721 mmHg 45%
    06:00 +5°C° 0 mm 3 mps 722 mmHg 45%
    07:00 +8°C° 0 mm 3 mps 722 mmHg 42%
    08:00 +10°C° 0 mm 3 mps 722 mmHg 38%
    09:00 +11°C° 0 mm 3 mps 722 mmHg 34%
    10:00 +14°C° 0 mm 3 mps 722 mmHg 30%
    11:00 +17°C° 0 mm 3 mps 722 mmHg 26%
    12:00 +19°C° 0 mm 3 mps 721 mmHg 22%
    13:00 +20°C° 0 mm 2 mps 721 mmHg 20%
    14:00 +21°C° 0 mm 2 mps 720 mmHg 19%
    15:00 +23°C° 0 mm 2 mps 720 mmHg 17%
    16:00 +19°C° 0 mm 2 mps 719 mmHg 22%
    17:00 +16°C° 0 mm 1 mps 719 mmHg 26%
    18:00 +13°C° 0 mm 1 mps 719 mmHg 30%
    19:00 +14°C° 0 mm 2 mps 719 mmHg 29%
    20:00 +14°C° 0 mm 2 mps 720 mmHg 29%
    21:00 +13°C° 0 mm 3 mps 720 mmHg 28%
    22:00 +12°C° 0 mm 3 mps 720 mmHg 29%
    23:00 +12°C° 0 mm 3 mps 720 mmHg 30%

    Day after tomorrow, 28 June, Friday

    Time Temperature Precipitation Wind Pressure Humidity
    00:00 +11°C° 0 mm 3 mps 720 mmHg 31%
    01:00 +10°C° 0 mm 3 mps 720 mmHg 34%
    02:00 +9°C° 0 mm 2 mps 719 mmHg 38%
    03:00 +9°C° 0 mm 2 mps 719 mmHg 41%
    04:00 +8°C° 0 mm 2 mps 719 mmHg 42%
    05:00 +8°C° 0 mm 2 mps 719 mmHg 44%
    06:00 +7°C° 0 mm 2 mps 719 mmHg 45%
    07:00 +10°C° 0 mm 2 mps 720 mmHg 39%
    08:00 +13°C° 0 mm 2 mps 720 mmHg 33%
    09:00 +15°C° 0 mm 2 mps 720 mmHg 28%
    10:00 +18°C° 0 mm 3 mps 720 mmHg 24%
    11:00 +20°C° 0 mm 4 mps 720 mmHg 21%
    12:00 +22°C° 0 mm 5 mps 720 mmHg 18%
    13:00 +23°C° 0 mm 5 mps 720 mmHg 17%
    14:00 +25°C° 0 mm 5 mps 719 mmHg 17%
    15:00 +26°C° 0 mm 6 mps 719 mmHg 16%
    16:00 +23°C° 0 mm 5 mps 719 mmHg 19%
    17:00 +21°C° 0 mm 4 mps 719 mmHg 21%
    18:00 +19°C° 0 mm 4 mps 719 mmHg 24%
    19:00 +18°C° 0 mm 4 mps 719 mmHg 25%
    20:00 +17°C° 0 mm 4 mps 719 mmHg 27%
    21:00 +17°C° 0 mm 4 mps 720 mmHg 28%
    22:00 +14°C° 0 mm 5 mps 720 mmHg 45%
    23:00 +12°C° 0 mm 7 mps 721 mmHg 63%

    29 June, Saturday

    Time Temperature Precipitation Wind Pressure Humidity
    00:00 +10°C° 0 mm 9 mps 721 mmHg 81%
    01:00 +10°C° 0 mm 8 mps 721 mmHg 78%
    02:00 +9°C° 0 mm 7 mps 722 mmHg 76%
    03:00 +9°C° 0 mm 7 mps 722 mmHg 74%
    04:00 +8°C° 0 mm 6 mps 722 mmHg 74%
    05:00 +7°C° 0 mm 5 mps 723 mmHg 74%
    06:00 +7°C° 0 mm 4 mps 723 mmHg 74%
    07:00 +7°C° 0 mm 4 mps 723 mmHg 65%
    08:00 +8°C° 0 mm 5 mps 724 mmHg 55%
    09:00 +9°C° 0 mm 6 mps 724 mmHg 46%
    10:00 +11°C° 0 mm 6 mps 724 mmHg 36%
    11:00 +14°C° 0 mm 6 mps 724 mmHg 27%
    12:00 +16°C° 0 mm 7 mps 724 mmHg 17%
    13:00 +16°C° 0 mm 7 mps 723 mmHg 16%
    14:00 +17°C° 0 mm 7 mps 723 mmHg 15%
    15:00 +18°C° 0 mm 7 mps 722 mmHg 14%
    16:00 +16°C° 0 mm 6 mps 723 mmHg 17%
    17:00 +14°C° 0 mm 6 mps 723 mmHg 20%
    18:00 +12°C° 0 mm 5 mps 723 mmHg 22%
    19:00 +10°C° 0 mm 5 mps 723 mmHg 24%
    20:00 +8°C° 0 mm 5 mps 724 mmHg 25%
    21:00 +7°C° 0 mm 5 mps 724 mmHg 27%
    22:00 +6°C° 0 mm 4 mps 724 mmHg 29%
    23:00 +6°C° 0 mm 4 mps 724 mmHg 32%

    30 June, Sunday

    Time Temperature Precipitation Wind Pressure Humidity
    00:00 +5°C° 0 mm 4 mps 724 mmHg 34%
    01:00 +4°C° 0 mm 4 mps 724 mmHg 40%
    02:00 +4°C° 0 mm 4 mps 724 mmHg 46%
    03:00 +3°C° 0 mm 3 mps 723 mmHg 51%
    04:00 +3°C° 0 mm 4 mps 724 mmHg 56%
    05:00 +3°C° 0 mm 4 mps 724 mmHg 62%
    06:00 +1°C° 0 mm 4 mps 724 mmHg 67%
    07:00 +3°C° 0 mm 5 mps 725 mmHg 63%
    08:00 +6°C° 0 mm 5 mps 725 mmHg 59%
    09:00 +7°C° 0 mm 6 mps 725 mmHg 55%
    10:00 +9°C° 0 mm 6 mps 724 mmHg 47%
    11:00 +13°C° 0 mm 6 mps 724 mmHg 39%
    12:00 +15°C° 0 mm 6 mps 723 mmHg 30%
    13:00 +16°C° 0 mm 5 mps 723 mmHg 27%
    14:00 +17°C° 0 mm 5 mps 722 mmHg 24%
    15:00 +19°C° 0 mm 5 mps 721 mmHg 21%
    16:00 +16°C° 0 mm 5 mps 721 mmHg 25%
    17:00 +14°C° 0 mm 4 mps 721 mmHg 29%
    18:00 +12°C° 0 mm 4 mps 721 mmHg 33%
    19:00 +11°C° 0 mm 4 mps 721 mmHg 35%
    20:00 +10°C° 0 mm 4 mps 722 mmHg 38%
    21:00 +8°C° 0 mm 4 mps 722 mmHg 41%
    22:00 +8°C° 0 mm 4 mps 722 mmHg 44%
    23:00 +7°C° 0 mm 4 mps 722 mmHg 47%

    1 July, Monday

    Time Temperature Precipitation Wind Pressure Humidity
    00:00 +6°C° 0 mm 4 mps 722 mmHg 49%
    01:00 +5°C° 0 mm 4 mps 722 mmHg 53%
    02:00 +5°C° 0 mm 3 mps 721 mmHg 57%
    03:00 +4°C° 0 mm 3 mps 721 mmHg 60%
    04:00 +3°C° 0 mm 3 mps 721 mmHg 61%
    05:00 +3°C° 0 mm 3 mps 722 mmHg 63%
    06:00 +3°C° 0 mm 3 mps 722 mmHg 64%
    07:00 +5°C° 0 mm 3 mps 722 mmHg 58%
    08:00 +7°C° 0 mm 3 mps 722 mmHg 51%
    09:00 +9°C° 0 mm 3 mps 722 mmHg 45%
    10:00 +12°C° 0 mm 2 mps 722 mmHg 39%
    11:00 +15°C° 0 mm 2 mps 721 mmHg 33%
    12:00 +18°C° 0 mm 1 mps 721 mmHg 27%
    13:00 +18°C° 0 mm 2 mps 720 mmHg 25%
    14:00 +20°C° 0 mm 3 mps 720 mmHg 23%
    15:00 +21°C° 0 mm 3 mps 719 mmHg 21%
    16:00 +18°C° 0 mm 2 mps 719 mmHg 31%
    17:00 +15°C° 0 mm 1 mps 719 mmHg 42%
    18:00 +12°C° 0 mm 1 mps 719 mmHg 52%
    19:00 +11°C° 0 mm 1 mps 719 mmHg 53%
    20:00 +11°C° 0 mm 1 mps 719 mmHg 54%
    21:00 +10°C° 0 mm 1 mps 720 mmHg 56%
    22:00 +9°C° 0 mm 2 mps 720 mmHg 47%
    23:00 +9°C° 0 mm 2 mps 720 mmHg 39%
    Show more